Regional Weather Roundup
Issued by NWS

Home | Current Version | Previous Version | Graphics & Text | Print | Product List | Glossary On
Versions: 1 2 3 4 5 6 7 8 9 10 11 12 13 14 15 16 17 18 19 20 21 22 23 24 25 26 27 28 29 30 31 32 33 34 35 36 37 38 39 40 41 42 43 44 45 46 47 48 49 50
000
ASUS43 KDMX 231206
RWRIA

WEATHER ROUNDUP FOR IOWA
NATIONAL WEATHER SERVICE DES MOINES IA
600 AM CST FRI FEB 23 2018

NOTE: "FAIR" INDICATES FEW OR NO CLOUDS BELOW 12,000 FEET WITH NO
SIGNIFICANT WEATHER AND/OR OBSTRUCTIONS TO VISIBILITY.

* - THESE STATIONS ARE NOT NWS STATIONS...THUS NOT UNDER NWS
QUALITY CONTROL.  THEY ALSO DO NOT REPORT WEATHER SUCH
AS PRECIPITATION OR FOG.

IAZ001>003-012>014-020>022-031>034-043>046-231300-
   NORTHWEST IOWA

CITY           SKY/WX    TMP DP  RH WIND       PRES   REMARKS
CARROLL *      CLEAR     25  23  93 W10       30.16R WCI  15
CHEROKEE *     CLOUDY    15  15  99 SW6       30.17R FOG     WCI   6
DENISON *      CLEAR     21  21 100 W7        30.19R WCI  13
LE MARS *      PTCLDY    16  16 100 W7        30.17R WCI   6
ORANGE CITY *  FOG       18  18 100 W10       30.15R VSB 3/4 WCI   6
SHELDON *      CLOUDY    19  19 100 W16       30.12R FOG     WCI   5
SIOUX CITY     CLOUDY    15  14  95 NW6       30.19R WCI   6
6HR MIN TEMP:  14; 6HR MAX TEMP:  27;

SPENCER        CLOUDY    23  19  85 W14       30.13R WCI  11
6HR MIN TEMP:  23; 6HR MAX TEMP:  28; 6HR PCP: TRACE;

STORM LAKE *   CLEAR     18  18 100 W9        30.14R FOG     WCI   6
$$

IAZ055>058-069>071-079>083-090>094-231300-
   SOUTHWEST IOWA

CITY           SKY/WX    TMP DP  RH WIND       PRES   REMARKS
ATLANTIC *     CLEAR     27  27 100 W8        30.19R WCI  18
AUDUBON *      CLEAR     25  21  86 CALM      30.17S
CLARINDA *     CLOUDY    30  30 100 NW8       30.23S WCI  23
COUNCIL BLFS * CLEAR     25  25 100 W8        30.20R FOG     WCI  16
CRESTON *      CLOUDY    30  28  93 NW14G20   30.18S WCI  20
HARLAN  *      CLEAR     23  23 100 W8        30.22R WCI  14
LAMONI         CLOUDY    32  29  88 W10       30.18R WCI  24
6HR MIN TEMP:  32; 6HR MAX TEMP:  32; 6HR PCP:  0.01;

RED OAK *      CLOUDY    27  25  93 CALM      30.21R
SHENANDOAH *   CLOUDY    28  27  93 W7        30.23R WCI  21
$$

IAZ047>049-059>061-072>074-084-231300-
   CENTRAL IOWA

CITY           SKY/WX    TMP DP  RH WIND       PRES   REMARKS
AMES           CLOUDY    31  26  82 NW15      30.16R WCI  20
6HR MIN TEMP:  31; 6HR MAX TEMP:  33; 6HR PCP:  0.06;

ANKENY *       CLOUDY    32  28  86 W15G21    30.18R WCI  22
BOONE *        CLOUDY    28  27  93 MISG      30.15R
CHARITON *     CLOUDY    32  32 100 W10       30.17R WCI  24
DES MOINES     CLOUDY    33  28  81 W12       30.17R WCI  24
6HR MIN TEMP:  33; 6HR MAX TEMP:  33; 6HR PCP:  0.03;

GRINNELL*      CLOUDY    32  32 100 W16G22    30.15R WCI  21
KNOXVILLE *    CLOUDY    34  32  93 W13       30.15R WCI  25
MARSHALLTOWN   CLOUDY    33  31  92 W13       30.13R WCI  24
6HR MIN TEMP:  32; 6HR MAX TEMP:  34; 6HR PCP:  0.08;

NEWTON *       CLOUDY    32  32 100 W10G17    30.15S WCI  24
PELLA *        CLOUDY    32  32  99 W10G16    30.17R WCI  24
PERRY *        MOCLDY    29  27  92 W13       30.18R WCI  19
$$

IAZ004>006-015-016-023>025-035-036-231300-
   NORTH CENTRAL IOWA

CITY           SKY/WX    TMP DP  RH WIND       PRES   REMARKS
ALGONA *       MOCLDY    23 N/A N/A W15       30.12R WCI  10
CLARION *      CLOUDY    27  27 100 W12       30.13R WCI  16
ESTHERVILLE    MOCLDY    21  18  88 W15       30.10R WCI   8
6HR MIN TEMP:  21; 6HR MAX TEMP:  29; 6HR PCP: TRACE;

FORT DODGE *   CLEAR     24  21  88 W8        30.15R WCI  15
MASON CITY     MOCLDY    27  23  85 W14       30.11R WCI  16
6HR MIN TEMP:  27; 6HR MAX TEMP:  32; 6HR PCP:  0.09;

FOREST CITY *  CLOUDY    28  27  93 W5        30.10S WCI  23
WEBSTER CITY * MOCLDY    27  25  93 W9        30.12S WCI  17
IOWA FALLS *   CLOUDY    31  28  91 W14       30.15R WCI  20
$$

IAZ007>011-017>019-026>030-037>042-050>054-066-231300-
   NORTHEAST IOWA

CITY           SKY/WX    TMP DP  RH WIND       PRES   REMARKS
CEDAR RAPIDS   CLOUDY    34  34 100 W16       30.11R WCI  24
6HR MIN TEMP:  34; 6HR MAX TEMP:  37; 6HR PCP:  0.10;

CHARLES CITY * CLOUDY    32  32 100 W15G25    30.09R WCI  22
CLINTON *      CLOUDY    36  36 100 SW8       30.10S FOG     WCI  30
DECORAH *      CLOUDY    32  32 100 W9G16     30.05R WCI  24
DUBUQUE        CLOUDY    34  33  96 SW13      30.07S FOG     WCI  25
6HR MIN TEMP:  33; 6HR MAX TEMP:  35; 6HR PCP:  0.12;

MONTICELLO *   CLOUDY    36  36 100 W15       30.10R WCI  26
OELWEIN *      CLOUDY    32  32 100 W17       30.09R WCI  21
WATERLOO       CLOUDY    33  31  92 W15G21    30.11R WCI  23
6HR MIN TEMP:  32; 6HR MAX TEMP:  33; 6HR PCP:  0.20;

$$

IAZ064-065-067-068-078-231300-
   EAST CENTRAL IOWA

CITY           SKY/WX    TMP DP  RH WIND       PRES   REMARKS
DAVENPORT      CLOUDY    38  35  89 SW10      30.12R WCI  31
6HR MIN TEMP:  37; 6HR MAX TEMP:  39; 6HR PCP:  0.07;

IOWA CITY      CLOUDY    36  33  89 W18G25    30.15R WCI  26
6HR MIN TEMP:  35; 6HR MAX TEMP:  38; 6HR PCP:  0.10;

MT. PLEASANT * CLOUDY    34  34 100 W9        30.15R WCI  26
MUSCATINE *    CLOUDY    37  36  93 W13       30.15R WCI  29
QUAD CITIES    CLOUDY    38  37  97 W8        30.10S WCI  32
6HR MIN TEMP:  37; 6HR MAX TEMP:  40; 6HR PCP:  0.12;

$$

IAZ062-063-075>077-085>089-095>099-231300-
   SOUTHEAST IOWA

CITY           SKY/WX    TMP DP  RH WIND       PRES   REMARKS
BURLINGTON     CLOUDY    35  35 100 SW7       30.14R WCI  29
6HR MIN TEMP:  35; 6HR MAX TEMP:  39; 6HR PCP:  0.19;

FAIRFIELD *    CLOUDY    34  34 100 W14       30.15R WCI  24
FORT MADISON * CLOUDY    36  36 100 W7        30.16R WCI  30
KEOKUK *       CLOUDY    36  36 100 SW8       30.15R WCI  29
OSKALOOSA *    CLOUDY    32  32 100 NW16      30.16R WCI  21
OTTUMWA        CLOUDY    34  33  96 W13       30.15R WCI  25
6HR MIN TEMP:  33; 6HR MAX TEMP:  36; 6HR PCP: TRACE;

WASHINGTON *   CLOUDY    34  34 100 W13       30.15R WCI  25
$$

ABBREVIATIONS USED IN REMARKS
   TC - TEMPERATURES IN CELSIUS
  WCI - WIND CHILL INDEX
   HX - HEAT INDEX
  VSB - VISIBILITY
$$





USA.gov is the U.S. government's official web portal to all federal, state and local government web resources and services.